Weather Roundup
Issued by NWS

Home | Current Version | Previous Version | Graphics & Text | Print | Product List | Glossary Off
Versions: 1 2 3 4 5 6 7 8 9 10 11 12 13 14 15 16 17 18 19 20 21 22 23 24 25 26 27 28 29 30 31 32 33 34 35 36 37 38 39 40 41 42 43 44 45 46 47 48 49 50

382
NZUS93 KARX 240710
HRRWXR

CURRENT HOURLY OBSERVATIONS ACROSS
MUCH OF THE UPPER MISSISSIPPI VALLEY
NATIONAL WEATHER SERVICE LA CROSSE WI
200 AM CDT SUN SEP 24 2017


...SOUTHEAST MINNESOTA...


CITY           SKY/WX    TMP DP  RH WIND       PRES   REMARKS
ROCHESTER      CLEAR     68  63  84 SE8       30.01S
ROCHESTER/MAYO FAIR      73  62  68 SE9       30.00S
WINONA         CLEAR     70  66  88 CALM      29.99S
AUSTIN         CLOUDY    72  61  68 S3        29.99S
ALBERT LEA     CLEAR     73  64  73 S7        29.98S
DODGE CENTER   PTCLDY    68  61  77 SE8       29.99S
PRESTON        CLEAR     69  61  74 S7        30.02S
OWATONNA       CLOUDY    73  64  73 SE8       29.97S
FARIBAULT      PTCLDY    68  63  83 CALM      29.96S
$$

...ELSEWHERE IN MINNESOTA...


CITY           SKY/WX    TMP DP  RH WIND       PRES   REMARKS
MINNEAPOLIS    PTCLDY    77  65  66 S13       29.94S
INTNL FALLS    CLOUDY    57  54  89 SE3       30.02F
DULUTH         CLOUDY    64  64 100 NE7       29.98F
RED WING       PTCLDY    73  61  64 E5        29.95F
REDWOOD FALLS  CLOUDY    60  59  96 N3        29.93F FOG
MANKATO        CLEAR     70  65  84 SE8       29.94F
WORTHINGTON    PTCLDY    62  60  93 E3        29.94F
FAIRMONT       CLEAR     69  64  84 S9        29.94
$$

...SOUTHWEST WISCONSIN...


CITY           SKY/WX    TMP DP  RH WIND       PRES   REMARKS
LA CROSSE      CLEAR     72  66  81 S7        30.00R
PRAIRIE DU CHI CLEAR     70  63  78 E6        30.02R
BOSCOBEL       CLEAR     67  64  90 CALM      30.03S
LONE ROCK      CLEAR     65  64  97 CALM      30.04S
PLATTEVILLE    CLEAR     71  65  81 E6        30.05S
FORT MC COY    CLEAR     64  62  93 NW5       30.03S
CAMP DOUGLAS   CLEAR     62  62 100 SE6       30.04R
MAUSTON-NEW LI SUNNY     65  64  95 SE3       30.04R
VIROQUA        FAIR      71  64  77 SE6       30.05S
WIS DELLS      CLEAR     71  62  72 S6        30.06S
$$

...ELSEWHERE IN WISCONSIN...


CITY           SKY/WX    TMP DP  RH WIND       PRES   REMARKS
MILWAUKEE      CLEAR     75  67  76 S6        30.08R
MADISON        CLEAR     74  66  76 S7        30.06R
GREEN BAY      CLEAR     70  67  90 S3        30.06S
EAU CLAIRE     PTCLDY    72  65  78 S7        29.98S
BLACK RVR FLS  FAIR      61  61 100 CALM      30.01S FOG
MEDFORD        PTCLDY    66  62  87 S6        30.05S
WAUSAU         CLEAR     67  64  90 SE3       30.05R
WIS RAPIDS     CLEAR     72  64  76 S7        30.06S
MARSHFIELD     CLEAR     67  61  81 S3        30.05R
RICE LAKE      CLEAR     68  64  88 CALM      30.01S
$$

...NORTHEAST IOWA...


CITY           SKY/WX    TMP DP  RH WIND       PRES   REMARKS
WATERLOO       CLEAR     72  62  71 SE9       29.99R
DUBUQUE        CLEAR     72  63  73 SE8       30.05R
DECORAH        CLEAR     70  63  78 S6        30.01S
MASON CITY     CLEAR     69  62  78 SE7       29.99F
CHARLES CITY   CLEAR     70  63  78 SE7       30.01R
OELWEIN        CLEAR     70  64  83 SE7       30.02S
$$

...ELSEWHERE IN IOWA...


CITY           SKY/WX    TMP DP  RH WIND       PRES   REMARKS
DES MOINES     CLEAR     74  64  71 SE8       29.96S
IOWA CITY      CLEAR     69  64  84 CALM      30.02S
FORT DODGE     CLOUDY    75  65  70 SE6       29.96S
MARSHALLTOWN   CLEAR     71  63  75 SE7       29.98S
CEDAR RAPIDS     N/A     71  62  73 SE5       30.00S
$$

...NORTHERN ILLINOIS...


CITY           SKY/WX    TMP DP  RH WIND       PRES   REMARKS
CHICAGO-OHARE  CLEAR     75  65  70 CALM      30.07R
CHICAGO-MIDWAY CLEAR     79  65  62 SE6       30.07R
MOLINE         CLEAR     72  62  71 E3        30.01S
ROCKFORD       CLEAR     70  64  81 CALM      30.07S
PEORIA         CLEAR     72  64  76 CALM      30.05R
$$

NOTE: "FAIR" INDICATES FEW OR NO CLOUDS BELOW 12,000 FEET WITH NO
SIGNIFICANT WEATHER AND/OR OBSTRUCTIONS TO VISIBILITY. WIND
SPEEDS ARE IN MILES-PER-HOUR.




USA.gov is the U.S. government's official web portal to all federal, state and local government web resources and services.